Regional Weather Roundup
Issued by NWS Charleston, WV

Home | Current Version | Previous Version | Text Only | Print | Product List | Glossary On
Versions: 1 2 3 4 5 6 7 8 9 10 11 12 13 14 15 16 17 18 19 20 21 22 23 24 25 26 27 28 29 30 31 32 33 34 35 36 37 38 39 40 41 42 43 44 45 46 47 48 49 50
000
ASUS41 KRLX 070910
RWRRLX
West Virginia Regional Weather Roundup
National Weather Service Charleston WV
500 AM EDT TUE JUL 07 2015

Note: "fair" indicates few or no clouds below 12,000 feet with no
significant weather and/or obstructions to visibility.

WVZ003-071000-
Northern Panhandle of West Virginia

CITY           SKY/WX    TMP DP  RH WIND       PRES   REMARKS
WHEELING       PTCLDY    67  65  93 S7        30.03S FOG
$$

WVZ009-071000-
Northwest West Virginia

CITY           SKY/WX    TMP DP  RH WIND       PRES   REMARKS
PARKERSBURG    CLEAR     68  66  93 S3        30.06S FOG
$$

WVZ006-071000-
Western West Virginia

CITY           SKY/WX    TMP DP  RH WIND       PRES   REMARKS
HUNTINGTON     CLEAR     68  67  96 S7        30.05S FOG
$$

WVZ015-071000-
West Central West Virginia

CITY           SKY/WX    TMP DP  RH WIND       PRES   REMARKS
CHARLESTON     PTCLDY    65  64  97 CALM      30.06S
$$

WVZ022-031-071000-
North Central West Virginia

CITY           SKY/WX    TMP DP  RH WIND       PRES   REMARKS
CLARKSBURG     CLEAR     67  66  97 S3        30.06F
MORGANTOWN     MOCLDY    70  64  81 S3        30.07S
$$

WVZ025-035-042-045-071000-
Southern West Virginia

CITY           SKY/WX    TMP DP  RH WIND       PRES   REMARKS
BECKLEY        CLEAR     63  60  90 S3        30.17R FOG
LOGAN          FOG       66  66 100 CALM      30.08R VSB<1/4
BLUEFIELD      CLEAR     66  60  81 W7        30.18F
LEWISBURG      FOG       63  61  94 CALM      30.15S VSB<1/4
$$

WVZ047-071000-
Northern Mountains of West Virginia

CITY           SKY/WX    TMP DP  RH WIND       PRES   REMARKS
ELKINS         PTCLDY    63  61  93 CALM      30.12S FOG
$$

WVZ052-071000-
Eastern Panhandle of West Virginia

CITY           SKY/WX    TMP DP  RH WIND       PRES   REMARKS
MARTINSBURG    MOCLDY    70  68  93 CALM      30.03S
PETERSBURG     CLOUDY    68  66  94 CALM      30.07R FOG
$$


USA.gov is the U.S. government's official web portal to all federal, state and local government web resources and services.